Time,TemperatureF,DewpointF,PressureIn,WindDirection,WindDirectionDegrees,WindSpeedMPH,WindSpeedGustMPH,Humidity,HourlyPrecipIn,Conditions,Clouds,dailyrainin,SolarRadiationWatts/m^2,SoftwareType,DateUTC
2014-12-20 00:04:00,72.0,54.4,29.79,NNW,327,10.6,15.0,54,0.00,CLR,,0.00,0.0,WeatherDisplay:10.37,2014-12-19 11:04:00,
2014-12-20 00:09:00,72.0,54.9,29.79,NW,321,6.9,11.5,55,0.00,CLR,,0.00,0.0,WeatherDisplay:10.37,2014-12-19 11:09:00,
2014-12-20 00:14:00,71.8,54.8,29.79,North,10,4.6,9.2,55,0.00,CLR,,0.00,0.0,WeatherDisplay:10.37,2014-12-19 11:14:00,
2014-12-20 00:19:00,71.6,54.6,29.80,North,11,5.6,10.4,55,0.00,CLR,,0.00,0.0,WeatherDisplay:10.37,2014-12-19 11:19:00,
2014-12-20 00:24:00,71.5,54.5,29.80,North,10,4.1,5.8,55,0.00,CLR,,0.00,0.0,WeatherDisplay:10.37,2014-12-19 11:24:00,
2014-12-20 00:29:00,71.3,54.8,29.80,North,360,3.8,6.0,56,0.00,CLR,,0.00,0.0,WeatherDisplay:10.37,2014-12-19 11:29:00,
2014-12-20 00:34:00,71.6,54.6,29.78,NNE,15,4.9,11.5,55,0.00,CLR,,0.00,0.0,WeatherDisplay:10.37,2014-12-19 11:34:00,
2014-12-20 00:39:00,71.4,54.9,29.78,NNE,26,5.7,8.1,56,0.00,CLR,,0.00,0.0,WeatherDisplay:10.37,2014-12-19 11:39:00,
2014-12-20 00:44:00,71.5,54.5,29.78,ENE,71,3.2,5.8,55,0.00,CLR,,0.00,0.0,WeatherDisplay:10.37,2014-12-19 11:44:00,
2014-12-20 00:49:00,71.3,54.8,29.77,NNE,13,4.2,6.0,56,0.00,CLR,,0.00,0.0,WeatherDisplay:10.37,2014-12-19 11:49:00,
2014-12-20 00:54:00,71.1,54.6,29.77,NNW,339,4.9,10.4,56,0.00,CLR,,0.00,0.0,WeatherDisplay:10.37,2014-12-19 11:54:00,
2014-12-20 00:59:00,71.2,54.7,29.77,NNE,20,3.4,7.0,56,0.00,CLR,,0.00,0.0,WeatherDisplay:10.37,2014-12-19 11:59:00,
2014-12-20 01:04:00,71.1,54.6,29.75,North,10,3.5,5.8,56,0.00,CLR,,0.00,0.0,WeatherDisplay:10.37,2014-12-19 12:04:00,
2014-12-20 01:09:00,70.8,54.3,29.75,NNE,12,3.3,4.6,56,0.00,CLR,,0.00,0.0,WeatherDisplay:10.37,2014-12-19 12:09:00,
2014-12-20 01:14:00,70.4,54.0,29.75,NNE,17,2.3,4.6,56,0.00,CLR,,0.00,0.0,WeatherDisplay:10.37,2014-12-19 12:14:00,
2014-12-20 01:19:00,70.1,53.7,29.75,NNE,20,5.7,6.9,56,0.00,CLR,,0.00,0.0,WeatherDisplay:10.37,2014-12-19 12:19:00,
2014-12-20 01:24:00,69.9,54.0,29.75,NNE,23,4.0,5.8,57,0.00,CLR,,0.00,0.0,WeatherDisplay:10.37,2014-12-19 12:24:00,
2014-12-20 01:29:00,69.7,53.8,29.75,NE,38,3.4,6.0,57,0.00,CLR,,0.00,0.0,WeatherDisplay:10.37,2014-12-19 12:29:00,
2014-12-20 01:34:00,69.8,53.4,29.75,NNE,21,4.2,7.0,56,0.00,CLR,,0.00,0.0,WeatherDisplay:10.37,2014-12-19 12:34:00,
2014-12-20 01:39:00,69.9,53.5,29.75,NE,40,4.8,7.0,56,0.00,CLR,,0.00,0.0,WeatherDisplay:10.37,2014-12-19 12:39:00,
2014-12-20 01:44:00,70.2,53.3,29.75,NNE,28,5.8,12.7,55,0.00,CLR,,0.00,0.0,WeatherDisplay:10.37,2014-12-19 12:44:00,
2014-12-20 01:49:00,70.1,53.7,29.74,NE,44,3.9,5.0,56,0.00,CLR,,0.00,0.0,WeatherDisplay:10.37,2014-12-19 12:49:00,
2014-12-20 01:54:00,69.7,53.8,29.74,NNE,26,3.2,4.6,57,0.00,CLR,,0.00,0.0,WeatherDisplay:10.37,2014-12-19 12:54:00,
2014-12-20 01:59:00,69.2,53.8,29.74,NE,44,3.7,4.6,58,0.00,CLR,,0.00,0.0,WeatherDisplay:10.37,2014-12-19 12:59:00,
2014-12-20 02:04:00,68.9,54.0,29.74,North,9,3.5,4.6,59,0.00,CLR,,0.00,0.0,WeatherDisplay:10.37,2014-12-19 13:04:00,
2014-12-20 02:09:00,68.9,53.5,29.74,NE,36,3.5,5.8,58,0.00,CLR,,0.00,0.0,WeatherDisplay:10.37,2014-12-19 13:09:00,
2014-12-20 02:14:00,69.1,53.2,29.74,NE,51,7.3,10.4,57,0.00,CLR,,0.00,0.0,WeatherDisplay:10.37,2014-12-19 13:14:00,
2014-12-20 02:19:00,70.2,53.3,29.74,NE,42,3.7,6.9,55,0.00,CLR,,0.00,0.0,WeatherDisplay:10.37,2014-12-19 13:19:00,
2014-12-20 02:24:00,69.8,52.9,29.74,NE,44,5.2,9.2,55,0.00,CLR,,0.00,0.0,WeatherDisplay:10.37,2014-12-19 13:24:00,
2014-12-20 02:29:00,70.0,52.6,29.74,ENE,76,5.0,9.2,54,0.00,CLR,,0.00,0.0,WeatherDisplay:10.37,2014-12-19 13:29:00,
2014-12-20 02:34:00,70.0,53.1,29.73,NNE,21,4.0,5.8,55,0.00,CLR,,0.00,0.0,WeatherDisplay:10.37,2014-12-19 13:34:00,
2014-12-20 02:39:00,69.4,52.5,29.73,NNE,27,3.6,6.0,55,0.00,CLR,,0.00,0.0,WeatherDisplay:10.37,2014-12-19 13:39:00,
2014-12-20 02:44:00,69.3,53.4,29.73,NNE,25,0.7,4.0,57,0.00,CLR,,0.00,0.0,WeatherDisplay:10.37,2014-12-19 13:44:00,
2014-12-20 02:49:00,69.1,52.7,29.73,North,5,4.5,5.8,56,0.00,CLR,,0.00,0.0,WeatherDisplay:10.37,2014-12-19 13:49:00,
2014-12-20 02:54:00,68.7,53.8,29.73,North,9,2.1,3.5,59,0.00,CLR,,0.00,0.0,WeatherDisplay:10.37,2014-12-19 13:54:00,
2014-12-20 02:59:00,67.6,53.2,29.73,NW,309,3.8,5.8,60,0.00,CLR,,0.00,0.0,WeatherDisplay:10.37,2014-12-19 13:59:00,
2014-12-20 03:04:00,67.6,53.2,29.73,ENE,57,3.9,10.4,60,0.00,CLR,,0.00,0.0,WeatherDisplay:10.37,2014-12-19 14:04:00,
2014-12-20 03:09:00,68.7,52.8,29.73,NE,51,1.6,4.0,57,0.00,CLR,,0.00,0.0,WeatherDisplay:10.37,2014-12-19 14:09:00,
2014-12-20 03:14:00,69.3,52.9,29.73,NE,51,2.3,3.5,56,0.00,CLR,,0.00,0.0,WeatherDisplay:10.37,2014-12-19 14:14:00,
2014-12-20 03:19:00,69.3,52.9,29.72,NE,51,2.0,2.3,56,0.00,CLR,,0.00,0.0,WeatherDisplay:10.37,2014-12-19 14:19:00,
2014-12-20 03:24:00,68.7,53.8,29.72,North,9,2.8,3.5,59,0.00,CLR,,0.00,0.0,WeatherDisplay:10.37,2014-12-19 14:24:00,
2014-12-20 03:29:00,67.7,53.3,29.72,North,9,1.9,3.5,60,0.00,CLR,,0.00,0.0,WeatherDisplay:10.37,2014-12-19 14:29:00,
2014-12-20 03:34:00,66.8,53.4,29.71,West,266,3.1,3.5,62,0.00,CLR,,0.00,0.0,WeatherDisplay:10.37,2014-12-19 14:34:00,
2014-12-20 03:39:00,65.9,53.4,29.71,West,268,1.0,3.5,64,0.00,CLR,,0.00,0.0,WeatherDisplay:10.37,2014-12-19 14:39:00,
2014-12-20 03:44:00,65.3,53.6,29.71,West,268,2.0,3.5,66,0.00,CLR,,0.00,0.0,WeatherDisplay:10.37,2014-12-19 14:44:00,
2014-12-20 03:49:00,64.9,53.7,29.71,West,268,0.0,0.0,67,0.00,CLR,,0.00,0.0,WeatherDisplay:10.37,2014-12-19 14:49:00,
2014-12-20 03:54:00,64.3,53.9,29.71,West,268,0.0,1.2,69,0.00,CLR,,0.00,0.0,WeatherDisplay:10.37,2014-12-19 14:54:00,
2014-12-20 03:59:00,63.8,53.8,29.71,West,268,2.5,3.5,70,0.00,CLR,,0.00,0.0,WeatherDisplay:10.37,2014-12-19 14:59:00,
2014-12-20 04:04:00,63.5,53.9,29.71,West,268,0.8,3.5,71,0.00,CLR,,0.00,0.0,WeatherDisplay:10.37,2014-12-19 15:04:00,
2014-12-20 04:09:00,63.0,54.2,29.71,West,268,2.0,3.5,73,0.00,CLR,,0.00,0.0,WeatherDisplay:10.37,2014-12-19 15:09:00,
2014-12-20 04:14:00,62.3,53.9,29.71,West,268,0.0,0.0,74,0.00,CLR,,0.00,0.0,WeatherDisplay:10.37,2014-12-19 15:14:00,
2014-12-20 04:19:00,62.0,54.0,29.70,West,268,2.2,3.5,75,0.00,CLR,,0.00,0.0,WeatherDisplay:10.37,2014-12-19 15:19:00,
2014-12-20 04:24:00,61.9,53.9,29.70,West,268,0.0,1.2,75,0.00,CLR,,0.00,0.0,WeatherDisplay:10.37,2014-12-19 15:24:00,
2014-12-20 04:29:00,62.0,53.6,29.70,West,268,0.0,0.0,74,0.00,CLR,,0.00,0.0,WeatherDisplay:10.37,2014-12-19 15:29:00,
2014-12-20 04:34:00,62.0,54.0,29.70,NW,318,2.4,3.5,75,0.00,CLR,,0.00,0.0,WeatherDisplay:10.37,2014-12-19 15:34:00,
2014-12-20 04:39:00,61.8,53.8,29.70,NW,319,0.0,0.0,75,0.00,CLR,,0.00,0.0,WeatherDisplay:10.37,2014-12-19 15:39:00,
2014-12-20 04:44:00,61.8,53.8,29.70,NW,318,0.0,0.0,75,0.00,CLR,,0.00,0.0,WeatherDisplay:10.37,2014-12-19 15:44:00,
2014-12-20 04:49:00,61.8,54.2,29.70,NW,319,2.8,3.5,76,0.00,CLR,,0.00,0.0,WeatherDisplay:10.37,2014-12-19 15:49:00,
2014-12-20 04:54:00,61.4,53.8,29.70,NW,319,0.4,2.0,76,0.00,CLR,,0.00,0.0,WeatherDisplay:10.37,2014-12-19 15:54:00,
2014-12-20 04:59:00,61.2,53.9,29.70,NW,319,2.8,4.6,77,0.00,CLR,,0.00,0.0,WeatherDisplay:10.37,2014-12-19 15:59:00,
2014-12-20 05:04:00,61.0,54.1,29.70,NW,319,0.0,0.0,78,0.00,CLR,,0.00,0.0,WeatherDisplay:10.37,2014-12-19 16:04:00,
2014-12-20 05:10:00,60.7,54.1,29.70,NW,319,0.0,0.0,79,0.00,CLR,,0.00,0.0,WeatherDisplay:10.37,2014-12-19 16:10:00,
2014-12-20 05:15:00,60.4,54.2,29.70,NW,319,0.0,3.5,80,0.00,CLR,,0.00,0.0,WeatherDisplay:10.37,2014-12-19 16:15:00,
2014-12-20 05:20:00,59.9,54.1,29.70,NW,315,2.0,3.5,81,0.00,OVC,,0.00,0.0,WeatherDisplay:10.37,2014-12-19 16:20:00,
2014-12-20 05:25:00,59.8,54.0,29.70,NW,314,1.1,2.3,81,0.00,OVC,,0.00,0.0,WeatherDisplay:10.37,2014-12-19 16:25:00,
2014-12-20 05:30:00,60.0,54.5,29.70,WNW,298,0.5,3.5,82,0.00,OVC,,0.00,0.0,WeatherDisplay:10.37,2014-12-19 16:30:00,
2014-12-20 05:35:00,60.1,54.6,29.69,WNW,298,1.1,3.5,82,0.00,OVC,,0.00,0.0,WeatherDisplay:10.37,2014-12-19 16:35:00,
2014-12-20 05:40:00,60.0,54.5,29.69,WNW,296,2.6,3.5,82,0.00,OVC,,0.00,0.0,WeatherDisplay:10.37,2014-12-19 16:40:00,
2014-12-20 05:45:00,60.0,54.5,29.69,West,265,3.4,4.0,82,0.00,OVC,,0.00,0.0,WeatherDisplay:10.37,2014-12-19 16:45:00,
2014-12-20 05:50:00,59.9,54.4,29.69,West,265,1.3,3.5,82,0.00,OVC,,0.00,0.0,WeatherDisplay:10.37,2014-12-19 16:50:00,
2014-12-20 05:55:00,59.8,54.3,29.69,West,265,1.9,2.0,82,0.00,OVC,,0.00,0.0,WeatherDisplay:10.37,2014-12-19 16:55:00,
2014-12-20 06:00:00,59.8,54.6,29.69,West,265,0.0,0.0,83,0.00,OVC,,0.00,0.0,WeatherDisplay:10.37,2014-12-19 17:00:00,
2014-12-20 06:05:00,60.0,54.8,29.70,WSW,251,4.3,5.0,83,0.00,OVC,,0.00,0.0,WeatherDisplay:10.37,2014-12-19 17:05:00,
2014-12-20 06:10:00,60.7,55.5,29.70,WSW,246,1.9,3.5,83,0.00,OVC,,0.00,5.0,WeatherDisplay:10.37,2014-12-19 17:10:00,
2014-12-20 06:15:00,61.4,55.9,29.70,WSW,246,0.0,0.0,82,0.00,OVC,,0.00,9.0,WeatherDisplay:10.37,2014-12-19 17:15:00,
2014-12-20 06:20:00,61.9,56.0,29.70,WSW,246,0.0,0.0,81,0.00,OVC,,0.00,12.0,WeatherDisplay:10.37,2014-12-19 17:20:00,
2014-12-20 06:25:00,62.0,55.8,29.70,WSW,246,2.2,3.5,80,0.00,OVC,,0.00,14.0,WeatherDisplay:10.37,2014-12-19 17:25:00,
2014-12-20 06:30:00,62.3,56.0,29.70,WSW,246,2.5,3.5,80,0.00,OVC,,0.00,18.0,WeatherDisplay:10.37,2014-12-19 17:30:00,
2014-12-20 06:35:00,62.2,56.0,29.69,WSW,246,0.0,0.0,80,0.00,BKN,,0.00,21.0,WeatherDisplay:10.37,2014-12-19 17:35:00,
2014-12-20 06:40:00,63.3,56.3,29.69,WSW,245,1.8,3.5,78,0.00,OVC,,0.00,23.0,WeatherDisplay:10.37,2014-12-19 17:40:00,
2014-12-20 06:45:00,63.9,56.5,29.69,WSW,246,0.0,0.0,77,0.00,OVC,,0.00,25.0,WeatherDisplay:10.37,2014-12-19 17:45:00,
2014-12-20 06:50:00,63.7,56.4,29.69,WSW,246,0.0,0.0,77,0.00,OVC,,0.00,28.0,WeatherDisplay:10.37,2014-12-19 17:50:00,
2014-12-20 06:55:00,63.3,56.7,29.69,WSW,246,0.4,2.3,79,0.00,BKN,,0.00,32.0,WeatherDisplay:10.37,2014-12-19 17:55:00,
2014-12-20 07:00:00,63.0,56.7,29.69,WSW,246,0.0,0.0,80,0.00,OVC,,0.00,26.0,WeatherDisplay:10.37,2014-12-19 18:00:00,
2014-12-20 07:05:00,62.8,56.5,29.69,WSW,245,2.0,3.5,80,0.00,OVC,,0.00,32.0,WeatherDisplay:10.37,2014-12-19 18:05:00,
2014-12-20 07:10:00,62.7,56.8,29.69,WSW,246,0.0,0.0,81,0.00,OVC,,0.00,35.0,WeatherDisplay:10.37,2014-12-19 18:10:00,
2014-12-20 07:15:00,62.8,57.2,29.69,WSW,246,1.4,3.5,82,0.00,OVC,,0.00,39.0,WeatherDisplay:10.37,2014-12-19 18:15:00,
2014-12-20 07:20:00,62.9,57.3,29.69,SW,236,1.3,2.3,82,0.00,OVC,,0.00,42.0,WeatherDisplay:10.37,2014-12-19 18:20:00,
2014-12-20 07:25:00,63.3,57.7,29.69,SW,232,0.0,0.0,82,0.00,OVC,,0.00,51.0,WeatherDisplay:10.37,2014-12-19 18:25:00,
2014-12-20 07:30:00,63.6,57.7,29.69,SW,232,0.6,2.3,81,0.00,BKN,,0.00,60.0,WeatherDisplay:10.37,2014-12-19 18:30:00,
2014-12-20 07:35:00,63.8,57.9,29.69,SW,232,0.0,0.0,81,0.00,BKN,,0.00,62.0,WeatherDisplay:10.37,2014-12-19 18:35:00,
2014-12-20 07:40:00,64.3,58.0,29.69,ESE,123,2.2,3.5,80,0.00,BKN,,0.00,65.0,WeatherDisplay:10.37,2014-12-19 18:40:00,
2014-12-20 07:45:00,65.5,58.5,29.69,East,98,3.1,4.0,78,0.00,BKN,,0.00,79.0,WeatherDisplay:10.37,2014-12-19 18:45:00,
2014-12-20 07:50:00,66.5,58.7,29.69,ESE,115,2.4,3.5,76,0.00,BKN,,0.00,83.0,WeatherDisplay:10.37,2014-12-19 18:50:00,
2014-12-20 07:55:00,66.8,58.6,29.69,ESE,114,2.3,4.6,75,0.00,BKN,,0.00,98.0,WeatherDisplay:10.37,2014-12-19 18:55:00,
2014-12-20 08:00:00,67.3,59.1,29.69,East,90,1.7,3.5,75,0.00,BKN,,0.00,91.0,WeatherDisplay:10.37,2014-12-19 19:00:00,
2014-12-20 08:05:00,67.5,59.3,29.69,East,90,0.0,1.2,75,0.00,BKN,,0.00,76.0,WeatherDisplay:10.37,2014-12-19 19:05:00,
2014-12-20 08:10:00,67.4,59.6,29.69,East,90,0.0,1.0,76,0.00,BKN,,0.00,84.0,WeatherDisplay:10.37,2014-12-19 19:10:00,
2014-12-20 08:15:00,67.9,58.5,29.69,NNW,334,7.3,10.4,72,0.00,BKN,,0.00,88.0,WeatherDisplay:10.37,2014-12-19 19:15:00,
2014-12-20 08:20:00,69.4,58.8,29.69,NNW,333,3.2,4.0,69,0.00,BKN,,0.00,95.0,WeatherDisplay:10.37,2014-12-19 19:20:00,
2014-12-20 08:25:00,70.3,58.4,29.69,NNW,343,8.2,11.5,66,0.00,BKN,,0.00,107.0,WeatherDisplay:10.37,2014-12-19 19:25:00,
2014-12-20 08:30:00,70.9,59.0,29.68,NNW,336,5.5,10.4,66,0.00,BKN,,0.00,114.0,WeatherDisplay:10.37,2014-12-19 19:30:00,
2014-12-20 08:35:00,71.0,58.6,29.68,NNW,337,2.3,4.6,65,0.00,BKN,,0.00,121.0,WeatherDisplay:10.37,2014-12-19 19:35:00,
2014-12-20 08:40:00,71.0,58.6,29.68,North,350,3.4,4.6,65,0.00,BKN,,0.00,132.0,WeatherDisplay:10.37,2014-12-19 19:40:00,
2014-12-20 08:45:00,71.2,59.3,29.68,North,350,2.0,3.5,66,0.00,BKN,,0.00,144.0,WeatherDisplay:10.37,2014-12-19 19:45:00,
2014-12-20 08:50:00,71.2,60.1,29.68,NNE,26,1.0,4.0,68,0.00,BKN,,0.00,160.0,WeatherDisplay:10.37,2014-12-19 19:50:00,
2014-12-20 08:55:00,71.2,59.7,29.68,NNE,14,1.6,4.6,67,0.00,BKN,,0.00,167.0,WeatherDisplay:10.37,2014-12-19 19:55:00,
2014-12-20 09:00:00,71.2,59.3,29.70,North,355,5.1,9.2,66,0.00,BKN,,0.00,155.0,WeatherDisplay:10.37,2014-12-19 20:00:00,
2014-12-20 09:05:00,71.3,58.9,29.70,North,355,4.9,5.8,65,0.00,BKN,,0.00,158.0,WeatherDisplay:10.37,2014-12-19 20:05:00,
2014-12-20 09:10:00,71.5,59.5,29.70,NNE,31,4.3,4.3,66,0.00,BKN,,0.00,151.0,WeatherDisplay:10.37,2014-12-19 20:10:00,
2014-12-20 09:15:00,71.7,58.9,29.69,NNE,30,4.3,4.6,64,0.00,BKN,,0.00,153.0,WeatherDisplay:10.37,2014-12-19 20:15:00,
2014-12-20 09:20:00,71.8,59.0,29.69,NNE,24,3.5,5.8,64,0.00,BKN,,0.00,162.0,WeatherDisplay:10.37,2014-12-19 20:20:00,
2014-12-20 09:25:00,71.9,59.5,29.69,NNE,26,3.8,5.0,65,0.00,BKN,,0.00,156.0,WeatherDisplay:10.37,2014-12-19 20:25:00,
2014-12-20 09:30:00,72.3,59.0,29.70,NNE,14,2.2,3.5,63,0.00,BKN,,0.00,162.0,WeatherDisplay:10.37,2014-12-19 20:30:00,
2014-12-20 09:35:00,72.3,59.4,29.70,NNE,14,2.4,4.6,64,0.00,BKN,,0.00,176.0,WeatherDisplay:10.37,2014-12-19 20:35:00,
2014-12-20 09:40:00,72.4,58.6,29.70,NNE,22,2.9,5.8,62,0.00,BKN,,0.00,183.0,WeatherDisplay:10.37,2014-12-19 20:40:00,
2014-12-20 09:45:00,72.5,58.7,29.70,NNW,344,3.3,4.6,62,0.00,BKN,,0.00,174.0,WeatherDisplay:10.37,2014-12-19 20:45:00,
2014-12-20 09:50:00,72.6,58.4,29.70,NNE,17,5.6,5.8,61,0.00,BKN,,0.00,158.0,WeatherDisplay:10.37,2014-12-19 20:50:00,
2014-12-20 09:55:00,72.5,58.7,29.70,North,355,7.6,11.5,62,0.00,BKN,,0.00,176.0,WeatherDisplay:10.37,2014-12-19 20:55:00,
2014-12-20 10:00:00,72.2,58.9,29.70,NNE,17,5.4,10.4,63,0.00,BKN,,0.00,204.0,WeatherDisplay:10.37,2014-12-19 21:00:00,
2014-12-20 10:05:00,72.4,59.1,29.70,North,355,5.1,11.5,63,0.00,BKN,,0.00,234.0,WeatherDisplay:10.37,2014-12-19 21:05:00,
2014-12-20 10:10:00,72.5,59.2,29.70,North,355,6.6,10.4,63,0.00,BKN,,0.00,253.0,WeatherDisplay:10.37,2014-12-19 21:10:00,
2014-12-20 10:15:00,72.6,60.6,29.69,NNW,348,4.6,6.9,66,0.00,BKN,,0.00,287.0,WeatherDisplay:10.37,2014-12-19 21:15:00,